星链-2472 (STARLINK-2472 )

导读

STARLINK-2472是美国SpaceX公司星链(Starlink)卫星互联网星座中的一颗卫星,于2021年4月7日发射升空。作为星链低轨星座的组成部分,它运行在近地轨道,属于量产型通信卫星,搭载Ku/Ka波段通信载荷,采用霍尔推进系统,旨在为全球尤其是偏远地区提供高速低延迟的宽带互联网服务,是星链大规模星座部署中的一环,推动全球互联覆盖,也引发了关于太空交通与天文观测的相关讨论。

基本信息
目录编号:
48130
目录名称:
STARLINK-2472
国际标识:
2021-027AQ
轨道中心:
EARTH
卫星名称:
星链-2472
卫星全名:
星链-2472 (STARLINK-2472 )
卫星状态:
在轨 (已飞行1977 天)
发射日期:
2021-04-07 UTC
国别 :
美国 (US)
星等 :
--
轨道信息
数据来源 国际轨道数据
星历时间: 2026-09-05T12:43:06+0800
4小时前
查看轨道信息
半长轴: 6848.867km
偏心率: 0.0001257
轨道倾角: 53.161°
近地点辐角 88.559°
升交点赤经 52.817°
平近点角 271.555°
近地点: 469.869km
远地点: 471.591km
周期: 94.013分钟
每日圈数: 15.317034
详细信息
固有亮度:
5
最大亮度:
2.5
卫星平台:
Starlink V1.0
覆盖范围:
全球
运营商:
太空探索技术公司
运营商所在国:
美国
制造商(研发单位):
太空探索技术公司
制造商所在国:
美国
使用方式:
暂无
卫星简介
星链(Starlink)计划是由太空探索技术公司(SpaceX)提出的一个巨型低轨卫星互联网星座项目,计划在2019年至2024年间在太空搭建由约1.2万颗卫星组成的“星链”网络,其中1584颗将部署在地球上空550千米处的近地轨道,并从2020年开始工作。该卫星仍在工作。
2D轨道图
3D轨道图
轨道高度分析图
轨道倾角分析图
轨道综合分析图
查看轨道综合分析图
交会数据列表
事件ID 空间交会对象 最接近时刻(TCA) 交会距离 交会风险概率(CRP) 交会风险指数(CRI) 操作
CDM_260907-155504-813006-264821
LIME (62648)
2026-09-07T
15:55:06+0000
1.091 km
极远距离
1.472805E-5 中风险 0.58
CDM_260906-091104-813005-245521
2026-09-06T
09:11:45+0000
1.896 km
极远距离
2.081988E-6 低风险 0.41
CDM_260906-192604-813006-966321
2026-09-06T
19:26:37+0000
2.936 km
极远距离
1.256073E-6 低风险 0.37